GW5292 Weather Reports


time (UTC)temp
C
wind
direction
speed
KPH
gust
KPH
rain 1hr
cm
rain 24hr
cm
rain mn
cm
humidity
%
barometer
mb
20260503184512 14 69 3.2 16.1 0.00 0.00 0.00 38 1013.1
20260503183026 13 126 3.2 8.0 0.00 0.00 0.00 39 1013.2
20260503181503 13 115 6.4 17.7 0.00 0.00 0.00 39 1013.3
20260503180015 14 69 1.6 8.0 0.00 0.00 0.00 42 1013.3
20260503174513 14 137 1.6 8.0 0.00 0.00 0.00 35 1013.3
20260503173018 13 126 1.6 8.0 0.00 0.00 0.00 39 1013.6
20260503171520 13 158 3.2 9.7 0.00 0.00 0.00 41 1013.8
20260503081511 7 140 0.0 0.0 0.00 0.00 0.00 62 1012.2
20260503071514 7 9 3.2 6.4 0.00 0.00 0.00 62 1011.7
20260503054513 8 241 0.0 3.2 0.00 0.10 0.00 62 1011.9
20260503053002 8 250 0.0 4.8 0.00 0.13 0.00 61 1011.9
20260503051503 8 200 0.0 3.2 0.00 0.13 0.00 62 1012.1
20260503050010 8 243 0.0 3.2 0.00 0.13 0.00 62 1012.2
20260503044503 8 257 0.0 3.2 0.00 0.13 0.00 61 1012.4
20260503043016 8 265 0.0 3.2 0.00 0.13 0.00 61 1012.5
20260503041507 8 262 0.0 4.8 0.00 0.13 0.00 63 1012.6
20260503040005 8 209 0.0 4.8 0.00 0.13 0.00 62 1012.6
20260503034504 8 229 0.0 3.2 0.00 0.13 0.13 62 1012.7
20260503033008 8 183 0.0 3.2 0.00 0.13 0.13 62 1012.7
20260503031508 9 177 0.0 3.2 0.00 0.13 0.13 60 1012.7
20260503030003 9 296 0.0 3.2 0.00 0.13 0.13 58 1012.7
20260503024507 9 183 0.0 3.2 0.00 0.13 0.13 58 1012.8
20260503023004 9 104 0.0 3.2 0.00 0.13 0.13 57 1012.9
20260503021509 10 94 0.0 3.2 0.00 0.13 0.13 55 1012.9
20260503020012 10 271 0.0 3.2 0.00 0.13 0.13 53 1012.9
20260503014503 10 9 0.0 3.2 0.00 0.13 0.13 53 1012.9
20260503013009 10 224 0.0 3.2 0.00 0.13 0.13 52 1012.7
20260503011504 10 224 0.0 3.2 0.00 0.13 0.13 51 1012.6
20260503010008 10 231 0.0 0.0 0.00 0.13 0.13 50 1012.3
20260503004513 10 231 0.0 3.2 0.00 0.13 0.13 50 1012.1
20260503003004 11 215 0.0 3.2 0.00 0.13 0.13 48 1012.2
20260503001503 11 267 0.0 3.2 0.00 0.13 0.13 48 1012.0
20260503000014 11 267 0.0 3.2 0.00 0.13 0.13 47 1011.8
20260502234511 11 271 0.0 3.2 0.00 0.13 0.13 46 1011.7
20260502233014 11 286 0.0 3.2 0.00 0.13 0.13 44 1011.5
20260502231503 12 202 0.0 3.2 0.00 0.13 0.13 45 1011.6
20260502230004 12 336 1.6 3.2 0.00 0.13 0.13 46 1011.6
20260502224509 12 49 0.0 3.2 0.00 0.13 0.13 44 1011.7
20260502223017 12 200 0.0 3.2 0.00 0.13 0.13 44 1011.7
20260502221519 12 208 1.6 4.8 0.00 0.13 0.13 45 1011.6
20260502220005 12 146 0.0 3.2 0.00 0.13 0.13 42 1011.4
20260502214504 13 218 0.0 3.2 0.00 0.13 0.13 41 1011.3
20260502213009 13 63 1.6 4.8 0.00 0.13 0.13 40 1011.3
20260502211521 14 82 1.6 8.0 0.00 0.13 0.13 38 1011.1
20260502210021 13 352 1.6 6.4 0.00 0.13 0.13 37 1011.0
20260502204504 14 197 1.6 4.8 0.00 0.13 0.13 38 1010.9
20260502203010 14 181 1.6 8.0 0.00 0.13 0.13 38 1011.0
20260502201513 14 181 4.8 9.7 0.00 0.13 0.13 39 1011.0
20260502200024 14 71 1.6 4.8 0.00 0.13 0.13 39 1011.3
20260502194523 13 98 1.6 3.2 0.00 0.13 0.13 41 1011.5
20260502193011 13 196 0.0 6.4 0.00 0.13 0.13 44 1011.7
20260502191513 14 49 3.2 6.4 0.00 0.13 0.13 42 1012.1
20260502190018 13 30 3.2 4.8 0.00 0.13 0.13 47 1012.2